Time,TemperatureF,DewpointF,PressureIn,WindDirection,WindDirectionDegrees,WindSpeedMPH,WindSpeedGustMPH,Humidity,HourlyPrecipIn,Conditions,Clouds,dailyrainin,SolarRadiationWatts/m^2,SoftwareType,DateUTC
2013-05-27 00:02:00,48.0,33.0,-100.00,NNW,344,3.0,5.0,56,0.00,,,0.00,0.000000,,2013-05-27 08:02:00,
2013-05-27 00:11:00,48.0,33.0,-100.00,NNW,344,3.0,5.0,56,0.00,,,0.00,0.000000,,2013-05-27 08:11:00,
2013-05-27 00:21:00,48.0,33.0,-100.00,NNW,344,3.0,5.0,56,0.00,,,0.00,0.000000,,2013-05-27 08:21:00,
2013-05-27 00:32:00,48.0,33.0,-100.00,NNW,344,3.0,5.0,56,0.00,,,0.00,0.000000,,2013-05-27 08:32:00,
2013-05-27 00:33:00,47.0,32.0,-100.00,North,6,3.0,6.0,56,0.00,,,0.00,0.000000,,2013-05-27 08:33:00,
2013-05-27 00:52:00,47.0,32.0,-100.00,North,6,3.0,6.0,56,0.00,,,0.00,0.000000,,2013-05-27 08:52:00,
2013-05-27 01:02:00,47.0,32.0,-100.00,North,6,3.0,6.0,56,0.00,,,0.00,0.000000,,2013-05-27 09:02:00,
2013-05-27 01:11:00,47.0,32.0,-100.00,North,6,3.0,6.0,56,0.00,,,0.00,0.000000,,2013-05-27 09:11:00,
2013-05-27 01:21:00,47.0,32.0,-100.00,North,6,3.0,6.0,56,0.00,,,0.00,0.000000,,2013-05-27 09:21:00,
2013-05-27 01:53:00,47.0,31.0,-100.00,NW,305,4.0,7.0,54,0.00,,,0.00,0.000000,,2013-05-27 09:53:00,
2013-05-27 02:02:00,47.0,31.0,-100.00,NW,305,4.0,7.0,54,0.00,,,0.00,0.000000,,2013-05-27 10:02:00,
2013-05-27 02:12:00,47.0,31.0,-100.00,NW,305,4.0,7.0,54,0.00,,,0.00,0.000000,,2013-05-27 10:12:00,
2013-05-27 02:22:00,47.0,31.0,-100.00,NW,305,4.0,7.0,54,0.00,,,0.00,0.000000,,2013-05-27 10:22:00,
2013-05-27 02:32:00,47.0,31.0,-100.00,NW,305,4.0,7.0,54,0.00,,,0.00,0.000000,,2013-05-27 10:32:00,
2013-05-27 02:52:00,46.0,32.0,-100.00,NW,315,4.0,7.0,57,0.00,,,0.00,0.000000,,2013-05-27 10:52:00,
2013-05-27 03:02:00,46.0,32.0,-100.00,NW,315,4.0,7.0,57,0.00,,,0.00,0.000000,,2013-05-27 11:02:00,
2013-05-27 03:11:00,46.0,32.0,-100.00,NW,315,4.0,7.0,57,0.00,,,0.00,0.000000,,2013-05-27 11:11:00,
2013-05-27 03:21:00,46.0,32.0,-100.00,NW,315,4.0,7.0,57,0.00,,,0.00,0.000000,,2013-05-27 11:21:00,
2013-05-27 03:31:00,46.0,32.0,-100.00,NW,315,4.0,7.0,57,0.00,,,0.00,0.000000,,2013-05-27 11:31:00,
2013-05-27 03:52:00,46.0,31.0,-100.00,NW,319,3.0,5.0,55,0.00,,,0.00,0.000000,,2013-05-27 11:52:00,
2013-05-27 04:01:00,46.0,31.0,-100.00,NW,319,3.0,5.0,55,0.00,,,0.00,0.000000,,2013-05-27 12:01:00,
2013-05-27 04:11:00,46.0,31.0,-100.00,NW,319,3.0,5.0,55,0.00,,,0.00,0.000000,,2013-05-27 12:11:00,
2013-05-27 04:21:00,46.0,31.0,-100.00,NW,319,3.0,5.0,55,0.00,,,0.00,0.000000,,2013-05-27 12:21:00,
2013-05-27 04:31:00,46.0,31.0,-100.00,NW,319,3.0,5.0,55,0.00,,,0.00,0.000000,,2013-05-27 12:31:00,
2013-05-27 04:52:00,46.0,29.0,-100.00,West,277,3.0,6.0,51,0.00,,,0.00,1.000000,,2013-05-27 12:52:00,
2013-05-27 05:01:00,46.0,29.0,-100.00,West,277,3.0,6.0,51,0.00,,,0.00,1.000000,,2013-05-27 13:01:00,
2013-05-27 05:11:00,46.0,29.0,-100.00,West,277,3.0,6.0,51,0.00,,,0.00,1.000000,,2013-05-27 13:11:00,
2013-05-27 05:21:00,46.0,29.0,-100.00,West,277,3.0,6.0,51,0.00,,,0.00,1.000000,,2013-05-27 13:21:00,
2013-05-27 05:32:00,46.0,29.0,-100.00,West,277,3.0,6.0,51,0.00,,,0.00,1.000000,,2013-05-27 13:32:00,
2013-05-27 05:52:00,46.0,29.0,-100.00,WNW,301,4.0,7.0,51,0.00,,,0.00,15.000000,,2013-05-27 13:52:00,
2013-05-27 06:01:00,46.0,29.0,-100.00,WNW,301,4.0,7.0,51,0.00,,,0.00,15.000000,,2013-05-27 14:01:00,
2013-05-27 06:11:00,46.0,29.0,-100.00,WNW,301,4.0,7.0,51,0.00,,,0.00,15.000000,,2013-05-27 14:11:00,
2013-05-27 06:21:00,46.0,29.0,-100.00,WNW,301,4.0,7.0,51,0.00,,,0.00,15.000000,,2013-05-27 14:21:00,
2013-05-27 06:31:00,46.0,29.0,-100.00,WNW,301,4.0,7.0,51,0.00,,,0.00,15.000000,,2013-05-27 14:31:00,
2013-05-27 06:33:00,45.0,28.0,-100.00,NW,324,2.0,5.0,52,0.00,,,0.00,30.000000,,2013-05-27 14:33:00,
2013-05-27 06:52:00,45.0,28.0,-100.00,NW,324,2.0,5.0,52,0.00,,,0.00,30.000000,,2013-05-27 14:52:00,
2013-05-27 07:01:00,45.0,28.0,-100.00,NW,324,2.0,5.0,52,0.00,,,0.00,30.000000,,2013-05-27 15:01:00,
2013-05-27 07:11:00,45.0,28.0,-100.00,NW,324,2.0,5.0,52,0.00,,,0.00,30.000000,,2013-05-27 15:11:00,
2013-05-27 07:21:00,45.0,28.0,-100.00,NW,324,2.0,5.0,52,0.00,,,0.00,30.000000,,2013-05-27 15:21:00,
2013-05-27 07:33:00,46.0,29.0,-100.00,North,353,1.0,2.0,51,0.00,,,0.00,293.000000,,2013-05-27 15:33:00,
2013-05-27 07:53:00,46.0,29.0,-100.00,North,353,1.0,2.0,51,0.00,,,0.00,293.000000,,2013-05-27 15:53:00,
2013-05-27 08:02:00,46.0,29.0,-100.00,North,353,1.0,2.0,51,0.00,,,0.00,293.000000,,2013-05-27 16:02:00,
2013-05-27 08:12:00,46.0,29.0,-100.00,North,353,1.0,2.0,51,0.00,,,0.00,293.000000,,2013-05-27 16:12:00,
2013-05-27 08:22:00,46.0,29.0,-100.00,North,353,1.0,2.0,51,0.00,,,0.00,293.000000,,2013-05-27 16:22:00,
2013-05-27 08:52:00,47.0,29.0,-100.00,NNW,342,1.0,2.0,50,0.00,,,0.00,429.000000,,2013-05-27 16:52:00,
2013-05-27 09:02:00,47.0,29.0,-100.00,NNW,342,1.0,2.0,50,0.00,,,0.00,429.000000,,2013-05-27 17:02:00,
2013-05-27 09:11:00,47.0,29.0,-100.00,NNW,342,1.0,2.0,50,0.00,,,0.00,429.000000,,2013-05-27 17:11:00,
2013-05-27 09:22:00,47.0,29.0,-100.00,NNW,342,1.0,2.0,50,0.00,,,0.00,429.000000,,2013-05-27 17:22:00,
2013-05-27 09:31:00,47.0,29.0,-100.00,NNW,342,1.0,2.0,50,0.00,,,0.00,429.000000,,2013-05-27 17:31:00,
2013-05-27 09:52:00,50.0,28.0,-100.00,NNE,31,0.0,2.0,43,0.00,,,0.00,556.000000,,2013-05-27 17:52:00,
2013-05-27 10:02:00,50.0,28.0,-100.00,NNE,31,0.0,2.0,43,0.00,,,0.00,556.000000,,2013-05-27 18:02:00,
2013-05-27 10:11:00,50.0,28.0,-100.00,NNE,31,0.0,2.0,43,0.00,,,0.00,556.000000,,2013-05-27 18:11:00,
2013-05-27 10:21:00,50.0,28.0,-100.00,NNE,31,0.0,2.0,43,0.00,,,0.00,556.000000,,2013-05-27 18:21:00,
2013-05-27 10:32:00,50.0,28.0,-100.00,NNE,31,0.0,2.0,43,0.00,,,0.00,556.000000,,2013-05-27 18:32:00,
2013-05-27 10:52:00,49.0,29.0,-100.00,NW,322,1.0,3.0,46,0.00,,,0.00,668.000000,,2013-05-27 18:52:00,
2013-05-27 11:01:00,49.0,29.0,-100.00,NW,322,1.0,3.0,46,0.00,,,0.00,668.000000,,2013-05-27 19:01:00,
2013-05-27 11:11:00,49.0,29.0,-100.00,NW,322,1.0,3.0,46,0.00,,,0.00,668.000000,,2013-05-27 19:11:00,
2013-05-27 11:21:00,49.0,29.0,-100.00,NW,322,1.0,3.0,46,0.00,,,0.00,668.000000,,2013-05-27 19:21:00,
2013-05-27 11:31:00,49.0,29.0,-100.00,NW,322,1.0,3.0,46,0.00,,,0.00,668.000000,,2013-05-27 19:31:00,
2013-05-27 11:52:00,52.0,28.0,-100.00,NNW,336,1.0,3.0,40,0.00,,,0.00,753.000000,,2013-05-27 19:52:00,
2013-05-27 12:01:00,52.0,28.0,-100.00,NNW,336,1.0,3.0,40,0.00,,,0.00,753.000000,,2013-05-27 20:01:00,
2013-05-27 12:11:00,52.0,28.0,-100.00,NNW,336,1.0,3.0,40,0.00,,,0.00,753.000000,,2013-05-27 20:11:00,
2013-05-27 12:22:00,52.0,28.0,-100.00,NNW,336,1.0,3.0,40,0.00,,,0.00,753.000000,,2013-05-27 20:22:00,
2013-05-27 12:32:00,52.0,28.0,-100.00,NNW,336,1.0,3.0,40,0.00,,,0.00,753.000000,,2013-05-27 20:32:00,
2013-05-27 12:52:00,53.0,27.0,-100.00,WNW,300,1.0,3.0,37,0.00,,,0.00,805.000000,,2013-05-27 20:52:00,
2013-05-27 13:01:00,53.0,27.0,-100.00,WNW,300,1.0,3.0,37,0.00,,,0.00,805.000000,,2013-05-27 21:01:00,
2013-05-27 13:12:00,53.0,27.0,-100.00,WNW,300,1.0,3.0,37,0.00,,,0.00,805.000000,,2013-05-27 21:12:00,
2013-05-27 13:21:00,53.0,27.0,-100.00,WNW,300,1.0,3.0,37,0.00,,,0.00,805.000000,,2013-05-27 21:21:00,
2013-05-27 13:32:00,53.0,27.0,-100.00,WNW,300,1.0,3.0,37,0.00,,,0.00,805.000000,,2013-05-27 21:32:00,
2013-05-27 13:53:00,54.0,26.0,-100.00,NW,306,2.0,3.0,33,0.00,,,0.00,820.000000,,2013-05-27 21:53:00,
2013-05-27 14:02:00,54.0,26.0,-100.00,NW,306,2.0,3.0,33,0.00,,,0.00,820.000000,,2013-05-27 22:02:00,
2013-05-27 14:12:00,54.0,26.0,-100.00,NW,306,2.0,3.0,33,0.00,,,0.00,820.000000,,2013-05-27 22:12:00,
2013-05-27 14:22:00,54.0,26.0,-100.00,NW,306,2.0,3.0,33,0.00,,,0.00,820.000000,,2013-05-27 22:22:00,
2013-05-27 14:32:00,54.0,26.0,-100.00,NW,306,2.0,3.0,33,0.00,,,0.00,820.000000,,2013-05-27 22:32:00,
2013-05-27 14:53:00,55.0,25.0,-100.00,WNW,303,2.0,3.0,31,0.00,,,0.00,795.000000,,2013-05-27 22:53:00,
2013-05-27 15:02:00,55.0,25.0,-100.00,WNW,303,2.0,3.0,31,0.00,,,0.00,795.000000,,2013-05-27 23:02:00,
2013-05-27 15:12:00,55.0,25.0,-100.00,WNW,303,2.0,3.0,31,0.00,,,0.00,795.000000,,2013-05-27 23:12:00,
2013-05-27 15:22:00,55.0,25.0,-100.00,WNW,303,2.0,3.0,31,0.00,,,0.00,795.000000,,2013-05-27 23:22:00,
2013-05-27 15:32:00,55.0,25.0,-100.00,WNW,303,2.0,3.0,31,0.00,,,0.00,795.000000,,2013-05-27 23:32:00,
2013-05-27 15:52:00,56.0,25.0,-100.00,WNW,284,1.0,5.0,30,0.00,,,0.00,743.000000,,2013-05-27 23:52:00,
2013-05-27 16:01:00,56.0,25.0,-100.00,WNW,284,1.0,5.0,30,0.00,,,0.00,743.000000,,2013-05-28 00:01:00,
2013-05-27 16:11:00,56.0,25.0,-100.00,WNW,284,1.0,5.0,30,0.00,,,0.00,743.000000,,2013-05-28 00:11:00,
2013-05-27 16:21:00,56.0,25.0,-100.00,WNW,284,1.0,5.0,30,0.00,,,0.00,743.000000,,2013-05-28 00:21:00,
2013-05-27 16:31:00,56.0,25.0,-100.00,WNW,284,1.0,5.0,30,0.00,,,0.00,743.000000,,2013-05-28 00:31:00,
2013-05-27 16:52:00,57.0,24.0,-100.00,NW,325,1.0,3.0,28,0.00,,,0.00,651.000000,,2013-05-28 00:52:00,
2013-05-27 17:01:00,57.0,24.0,-100.00,NW,325,1.0,3.0,28,0.00,,,0.00,651.000000,,2013-05-28 01:01:00,
2013-05-27 17:11:00,57.0,24.0,-100.00,NW,325,1.0,3.0,28,0.00,,,0.00,651.000000,,2013-05-28 01:11:00,
2013-05-27 17:21:00,57.0,24.0,-100.00,NW,325,1.0,3.0,28,0.00,,,0.00,651.000000,,2013-05-28 01:21:00,
2013-05-27 17:31:00,57.0,24.0,-100.00,NW,325,1.0,3.0,28,0.00,,,0.00,651.000000,,2013-05-28 01:31:00,
2013-05-27 17:52:00,56.0,25.0,-100.00,NW,311,2.0,5.0,30,0.00,,,0.00,542.000000,,2013-05-28 01:52:00,
2013-05-27 18:02:00,56.0,25.0,-100.00,NW,311,2.0,5.0,30,0.00,,,0.00,542.000000,,2013-05-28 02:02:00,
2013-05-27 18:11:00,56.0,25.0,-100.00,NW,311,2.0,5.0,30,0.00,,,0.00,542.000000,,2013-05-28 02:11:00,
2013-05-27 18:21:00,56.0,25.0,-100.00,NW,311,2.0,5.0,30,0.00,,,0.00,542.000000,,2013-05-28 02:21:00,
2013-05-27 18:32:00,56.0,25.0,-100.00,NW,311,2.0,5.0,30,0.00,,,0.00,542.000000,,2013-05-28 02:32:00,
2013-05-27 18:33:00,56.0,24.0,-100.00,NW,309,1.0,4.0,29,0.00,,,0.00,414.000000,,2013-05-28 02:33:00,
2013-05-27 18:52:00,56.0,24.0,-100.00,NW,309,1.0,4.0,29,0.00,,,0.00,414.000000,,2013-05-28 02:52:00,
2013-05-27 19:01:00,56.0,24.0,-100.00,NW,309,1.0,4.0,29,0.00,,,0.00,414.000000,,2013-05-28 03:01:00,
2013-05-27 19:11:00,56.0,24.0,-100.00,NW,309,1.0,4.0,29,0.00,,,0.00,414.000000,,2013-05-28 03:11:00,
2013-05-27 19:21:00,56.0,24.0,-100.00,NW,309,1.0,4.0,29,0.00,,,0.00,414.000000,,2013-05-28 03:21:00,
2013-05-27 19:33:00,59.0,22.0,-100.00,WNW,299,0.0,2.0,24,0.00,,,0.00,289.000000,,2013-05-28 03:33:00,
2013-05-27 19:53:00,59.0,22.0,-100.00,WNW,299,0.0,2.0,24,0.00,,,0.00,289.000000,,2013-05-28 03:53:00,
2013-05-27 20:02:00,59.0,22.0,-100.00,WNW,299,0.0,2.0,24,0.00,,,0.00,289.000000,,2013-05-28 04:02:00,
2013-05-27 20:12:00,59.0,22.0,-100.00,WNW,299,0.0,2.0,24,0.00,,,0.00,289.000000,,2013-05-28 04:12:00,
2013-05-27 20:22:00,59.0,22.0,-100.00,WNW,299,0.0,2.0,24,0.00,,,0.00,289.000000,,2013-05-28 04:22:00,
2013-05-27 20:53:00,55.0,23.0,-100.00,NNW,332,2.0,3.0,28,0.00,,,0.00,175.000000,,2013-05-28 04:53:00,
2013-05-27 21:02:00,55.0,23.0,-100.00,NNW,332,2.0,3.0,28,0.00,,,0.00,175.000000,,2013-05-28 05:02:00,
2013-05-27 21:12:00,55.0,23.0,-100.00,NNW,332,2.0,3.0,28,0.00,,,0.00,175.000000,,2013-05-28 05:12:00,
2013-05-27 21:22:00,55.0,23.0,-100.00,NNW,332,2.0,3.0,28,0.00,,,0.00,175.000000,,2013-05-28 05:22:00,
2013-05-27 21:32:00,55.0,23.0,-100.00,NNW,332,2.0,3.0,28,0.00,,,0.00,175.000000,,2013-05-28 05:32:00,
2013-05-27 21:52:00,55.0,23.0,-100.00,NW,305,2.0,4.0,29,0.00,,,0.00,24.000000,,2013-05-28 05:52:00,
2013-05-27 22:02:00,55.0,23.0,-100.00,NW,305,2.0,4.0,29,0.00,,,0.00,24.000000,,2013-05-28 06:02:00,
2013-05-27 22:11:00,55.0,23.0,-100.00,NW,305,2.0,4.0,29,0.00,,,0.00,24.000000,,2013-05-28 06:11:00,
2013-05-27 22:21:00,55.0,23.0,-100.00,NW,305,2.0,4.0,29,0.00,,,0.00,24.000000,,2013-05-28 06:21:00,
2013-05-27 22:31:00,55.0,23.0,-100.00,NW,305,2.0,4.0,29,0.00,,,0.00,24.000000,,2013-05-28 06:31:00,
2013-05-27 22:52:00,52.0,21.0,-100.00,West,274,0.0,2.0,29,0.00,,,0.00,10.000000,,2013-05-28 06:52:00,
2013-05-27 23:01:00,52.0,21.0,-100.00,West,274,0.0,2.0,29,0.00,,,0.00,10.000000,,2013-05-28 07:01:00,
2013-05-27 23:11:00,52.0,21.0,-100.00,West,274,0.0,2.0,29,0.00,,,0.00,10.000000,,2013-05-28 07:11:00,
2013-05-27 23:21:00,52.0,21.0,-100.00,West,274,0.0,2.0,29,0.00,,,0.00,10.000000,,2013-05-28 07:21:00,
2013-05-27 23:31:00,52.0,21.0,-100.00,West,274,0.0,2.0,29,0.00,,,0.00,10.000000,,2013-05-28 07:31:00,
2013-05-27 23:52:00,52.0,22.0,-100.00,North,5,3.0,5.0,30,0.00,,,0.00,1.000000,,2013-05-28 07:52:00,